This demonstration page uses our WeatherBlox Daily Observations layout. Learn more.

36.17497, -115.13722

Hourly Observations for April 14, 2015

Temp ( °F °C ) Dew Point ( °F °C ) Humidity (%) Winds ( mph kmh ) Pressure ( in mb ) Visibility ( mi km ) Precip ( " mm )
12:53 am 00:53 Clear 73 22.8 22 -5.6 15 15 WSW 14 22 29.91 1013 10 16.0934 0 0
1:53 am 01:53 Clear 72 22.2 21 -6.1 15 15 WSW 13 20 29.9 1012 10 16.0934 0 0
2:53 am 02:53 Clear 70 21.1 24 -4.4 18 18 SSW 9 15 29.89 1012 10 16.0934 0 0
3:53 am 03:53 Clear 70 21.1 23 -5 17 17 SSW 13 20 29.86 1011 10 16.0934 0 0
4:53 am 04:53 Clear 70 21.1 25 -3.9 18 18 S 20 31 29.86 1011 10 16.0934 0 0
5:53 am 05:53 Clear 69 20.6 27 -2.8 21 21 SSW 16 26 29.87 1011 10 16.0934 0 0
6:53 am 06:53 Sunny 69 20.6 27 -2.8 21 21 S 17 28 29.89 1012 10 16.0934 0 0
7:53 am 07:53 Sunny 70 21.1 26 -3.3 19 19 SSW 18 30 29.9 1013 10 16.0934 0 0
8:53 am 08:53 Sunny 71 21.7 25 -3.9 18 18 SW 16 26 29.88 1012 10 16.0934 0 0
9:53 am 09:53 Sunny 75 23.9 21 -6.1 13 13 SW 21 33 29.86 1011 10 16.0934 0 0
10:53 am 10:53 Sunny 79 26.1 19 -7.2 10 10 SW 21 33 29.85 1011 10 16.0934 0 0
11:53 am 11:53 Sunny 81 27.2 19 -7.2 10 10 SW 32 52 29.8 1009 10 16.0934 0 0
12:53 pm 12:53 Sunny 82 27.8 19 -7.2 9 9 SW 26 43 29.75 1007 10 16.0934 0 0
1:53 pm 13:53 Sunny 83 28.3 17 -8.3 8 8 WSW 28 44 29.76 1008 10 16.0934 0 0
2:53 pm 14:53 Sunny 85 29.4 9 -12.8 5 5 W 31 50 29.74 1007 10 16.0934 0 0
3:53 pm 15:53 Sunny 84 28.9 10 -12.2 6 6 SW 16 26 29.74 1007 10 16.0934 0 0
4:53 pm 16:53 Mostly Cloudy with Haze 80 26.7 -1 -18.3 4 4 NNW 25 41 29.75 1008 2.5 4.02335 0 0
4:58 pm 16:58 Mostly Cloudy with Haze 79 26 -2 -19 4 4 NNW 31 50 29.65 1004 2 3.21868 0 0
5:32 pm 17:32 Cloudy with Haze 73 23 -2 -19 5 5 NNW 31 50 29.68 1005 3 4.82802 0 0
5:47 pm 17:47 Cloudy with Haze 73 23 -2 -19 5 5 NNW 30 48 29.68 1005 1 1.60934 0 0
5:53 pm 17:53 Cloudy with Overcast and Windy 73 22.8 -3 -19.4 5 5 NNW 33 54 29.8 1009 1 1.60934 0 0
6:15 pm 18:15 Cloudy with Overcast and Very Windy 71 21.7 -6 -21.1 4 4 NNW 39 63 29.71 1006 2 3.21868 0 0
6:53 pm 18:53 Cloudy with Overcast and Windy 68 20 -8 -22.2 4 4 NNW 35 56 29.84 1010 4 6.43736 0 0
7:53 pm 19:53 Cloudy 65 18.3 -9 -22.8 5 5 NNW 31 50 29.87 1012 10 16.0934 0 0
8:53 pm 20:53 Clear 63 17.2 -9 -22.8 5 5 NNW 28 44 29.95 1014 10 16.0934 0 0
9:53 pm 21:53 Clear 60 15.6 -5 -20.6 7 7 NNE 26 43 30.06 1018 10 16.0934 0 0
10:53 pm 22:53 Clear 58 14.4 -2 -18.9 8 8 N 21 33 30.09 1019 10 16.0934 0 0
11:53 pm 23:53 Clear 57 13.9 0 -17.8 10 10 N 14 22 30.13 1020 10 16.0934 0 0

Powered by AerisWeather